Location: Peach Mountain Observatory
(42.3967°N, 83.9367°W)
Time: 21:08:22
(UTC-05:00)

deb Explorer IX - Pass Details

Date: 02 February 2020
Orbit: 549 x 1099 km, 38.8° (Epoch: 25 February)

Event Time Altitude Azimuth Distance (km) Brightness Sun altitude
Rises 21:43:38 0° 269° (W) 3,520 ? -42.9°
Reaches altitude 10° 21:46:06 10° 266° (W) 2,654 ? -43.4°
Enters shadow 21:47:50 20° 262° (W) 2,080 ? -43.7°
